Weather History for Ingonish Beach, NS

Change the Weather History Date:

Wednesday, October 3, 2012

  Actual Average Record
Temperature  
Mean Temperature 60 °F -  
Max Temperature 65 °F - - ()
Min Temperature 55 °F - - ()
Degree Days  
Heating Degree Days 5    
Growing Degree Days 10 (Base 50)    
Moisture  
Dew Point 50 °F    
Average Humidity 72    
Maximum Humidity 86    
Minimum Humidity 56    
Precipitation  
Precipitation 0.00 in - - ()
Sea Level Pressure  
Sea Level Pressure 29.91 in    
Wind  
Wind Speed 4 mph ()    
Max Wind Speed 8 mph    
Max Gust Speed 21 mph    
T = Trace of Precipitation, MM = Missing Value Source: Averaged Metar Reports

Daily Weather History Graph

Daily Weather History Graph

Search for Another Location

Airport:

Trip Planner

Search our weather history database for the weather conditions in past years. The results will help you decide how hot, cold, wet, or windy it might be!

Date:

Astronomy

Oct. 03, 2012 Rise Set
Actual Time 7:03 AM ADT 6:36 PM ADT
Civil Twilight 6:33 AM ADT 7:06 PM ADT
Nautical Twilight 5:58 AM ADT 7:41 PM ADT
Astronomical Twilight 5:22 AM ADT 8:17 PM ADT
Moon 8:10 PM ADT (10/3) 10:36 AM ADT (10/3)
Length of Visible Light 12h 33m
Length of Day
11h 33m
Waning Gibbous, 89% of the Moon is Illuminated
Oct 3
Waning Gibbous
Oct 8
Last Quarter
Oct 15
New
Oct 22
First Quarter
Oct 29
Full

Hourly Weather History & Observations

Time (ADT) Temp. Dew Point Humidity Pressure Visibility Wind Dir Wind Speed Gust Speed Precip Events Conditions
12:00 AM 59.9 °F 53.6 °F 80% 29.82 in - West 4.6 mph - N/A   Unknown
1:00 AM 59.2 °F 53.1 °F 80% 29.82 in - WNW 3.5 mph - N/A   Unknown
2:00 AM 58.1 °F 52.2 °F 81% 29.82 in - West 2.3 mph - N/A   Unknown
3:00 AM 58 °F 52 °F 75% 29.83 in - West 3.5 mph - -  
3:00 AM 57.7 °F 52.2 °F 82% 29.83 in - West 3.5 mph - N/A   Unknown
4:00 AM 56.8 °F 51.6 °F 83% 29.83 in - West 4.6 mph - N/A   Unknown
5:00 AM 55.0 °F 51.1 °F 86% 29.84 in - West 3.5 mph - N/A   Unknown
6:00 AM 56.1 °F 51.3 °F 84% 29.84 in - West 4.6 mph - N/A   Unknown
7:00 AM 56.3 °F 50.7 °F 82% 29.85 in - West 3.5 mph - N/A   Unknown
8:00 AM 59.0 °F 50.0 °F 72% 29.87 in - WNW 5.8 mph - N/A   Unknown
9:00 AM 62 °F 51 °F 58% 29.88 in - WNW 5.8 mph - -  
9:00 AM 61.5 °F 50.9 °F 68% 29.88 in - WNW 5.8 mph - N/A   Unknown
10:00 AM 64.0 °F 51.3 °F 63% 29.89 in - WNW 5.8 mph - N/A   Unknown
11:00 AM 64.8 °F 50.4 °F 60% 29.88 in - NW 8.1 mph - N/A   Unknown
12:00 PM 63.5 °F 49.6 °F 61% 29.89 in - NNW 8.1 mph 18.4 mph N/A   Unknown
1:00 PM 61.9 °F 49.5 °F 64% 29.90 in - NNW 6.9 mph - N/A   Unknown
2:00 PM 61.3 °F 48.6 °F 63% 29.91 in - NW 5.8 mph 18.4 mph N/A   Unknown
3:00 PM 60 °F 48 °F 56% 29.92 in - NW 5.8 mph - -  
3:00 PM 59.9 °F 48.4 °F 66% 29.92 in - NW 5.8 mph - N/A   Unknown
4:00 PM 58.1 °F 48.7 °F 71% 29.94 in - NW 5.8 mph 17.3 mph N/A   Unknown
5:00 PM 57.4 °F 48.2 °F 71% 29.94 in - NW 5.8 mph 20.7 mph N/A   Unknown
6:00 PM 56.1 °F 48.4 °F 75% 29.96 in - NW 5.8 mph - N/A   Unknown
7:00 PM 55.6 °F 47.7 °F 75% 30.00 in - NW 2.3 mph - N/A   Unknown
8:00 PM 56.1 °F 47.7 °F 73% 30.01 in - NW 5.8 mph - N/A   Unknown
9:00 PM 57 °F 48 °F 64% 30.03 in - NW 6.9 mph - -  
9:00 PM 57.2 °F 48.0 °F 71% 30.03 in - NW 6.9 mph - N/A   Unknown
10:00 PM 57.4 °F 48.6 °F 72% 30.03 in - NNW 4.6 mph - N/A   Unknown
11:00 PM 58.1 °F 49.3 °F 72% 30.04 in - North 5.8 mph - N/A   Unknown